Flag for Canada Weather past 2 weeks in Saguenay, Quebec, Canada

Now
67 °F

Mild.


Feels Like: 67 °F
Forecast: 54 / 80 °F
Wind: 7 mph from Southwest

Location: Jonquiere Airport

Current Time: Jul 28, 2015 at 11:08:53 PM

Latest Report: Jul 28, 2015 at 10:00 PM


Visibility: N/A

Pressure: 29.94 "Hg

Humidity: 75%

Dew point: 59 °F

Location of SaguenayLocation

Historic Weather in Saguenay — Graph

°F

Saguenay temperature yesterday

Maximum temperature yesterday: 81 °F (at 2:00 PM)
Minimum temperature yesterday: 60 °F (at 5:00 AM)
Average temperature yesterday: 70 °F

Past Weeks' High & Low Weather Summary

 TemperatureHumidityPressure
High87 °F (Jul 14, 3:00 PM)100% (Jul 21, 6:00 AM)30.13 "Hg (Jul 21, 6:00 AM)
Low44 °F (Jul 16, 3:00 AM)39% (Jul 17, 4:00 PM)29.47 "Hg (Jul 21, 2:00 PM)
Average62 °F79%29.84 "Hg
* Reported Jul 13 10:00 PM — Jul 28 10:00 PM, Saguenay, Weather by CustomWeather, © 2015

Note: Actual official high and low records may vary slightly from our data, if they occured in-between our weather recording intervals... More about our weather records

Advertising

Saguenay weather history for previous 24 hours

 ConditionsComfort  
Time TempWeatherWind HumidityBarometerVisibility
10:00 PM
Tue, Jul 28
67 °FMild.7 mph75%29.94 "HgN/A
9:00 PM68 °FMild.3 mph75%29.93 "HgN/A
8:00 PM72 °FMild.3 mph58%29.93 "HgN/A
7:00 PM76 °FMild.7 mph51%29.93 "HgN/A
6:00 PM77 °FWarm.7 mph48%29.93 "HgN/A
5:00 PM77 °FWarm.13 mph48%29.94 "HgN/A
4:00 PM77 °FMild.12 mph49%29.93 "HgN/A
3:00 PM76 °FMild.12 mph51%29.93 "HgN/A
1:00 PM74 °FMild.13 mph49%29.94 "HgN/A
12:00 PM74 °FMild.10 mph56%29.94 "HgN/A
11:00 AM72 °FMild.13 mph59%29.94 "HgN/A
10:00 AM71 °FMild.8 mph65%29.95 "HgN/A
9:00 AM68 °FMild.7 mph69%29.95 "HgN/A
8:00 AM64 °FMild.1 mph76%29.96 "HgN/A
7:00 AM61 °FCool.1 mph87%29.95 "HgN/A
6:00 AM58 °FCool.2 mph90%29.94 "HgN/A
5:00 AM60 °FCool.5 mph91%29.93 "HgN/A
4:00 AM60 °FCool.1 mph88%29.91 "HgN/A
3:00 AM62 °FCool.3 mph81%29.91 "HgN/A
2:00 AM65 °FMild.6 mph74%29.92 "HgN/A
1:00 AM64 °FMild.8 mph88%29.91 "HgN/A
12:00 AM67 °FMild.7 mph79%29.91 "HgN/A
11:00 PM
Mon, Jul 27
68 °FMild.9 mph79%29.90 "HgN/A
Weather by CustomWeather, © 2015

See weather overviewHow to use our weather pages